Regional Weather Roundup
Issued by NWS Portland, ME

Current Version | Previous Version | Text Only | Print | Product List | Glossary On
Versions: 1 2 3 4 5 6 7 8 9 10 11 12 13 14 15 16 17 18 19 20 21 22 23 24 25 26 27 28 29 30 31 32 33 34 35 36 37 38 39 40 41 42 43 44 45 46 47 48 49 50
000
ASUS41 KGYX 220110
RWRGYX
WEATHER ROUNDUP FOR MAINE AND NEW HAMPSHIRE
NATIONAL WEATHER SERVICE GRAY ME
900 PM EDT MON MAY 21 2018

MEZ002-005-006-010-012-015-018-020-021-024-026-027-029-220200-
MAINE

CITY           SKY/WX    TMP DP  RH WIND       PRES   REMARKS
PORTLAND       FAIR      62  47  57 SE7       30.08R
SANFORD        FAIR      56  48  74 W6        30.09R
BAR HARBOR     FAIR      57  46  66 SW7       30.05R
WISCASSET      FAIR      55  49  80 CALM      30.09R
ROCKLAND       FAIR      55  46  71 W6        30.07R
FRYEBURG       FAIR      66  42  41 CALM      30.10R
LEWISTONAUBURN FAIR      69  40  34 VRB3      30.09R
AUGUSTA        FAIR      68  40  35 W6        30.08R
WATERVILLE     FAIR      67  41  38 W5        30.05R
BANGOR         FAIR      60  43  53 W5        30.04R
GREENVILLE       N/A     59  39  47 NW7       30.05R
MILLINOCKET    FAIR      62  33  33 CALM      30.04R
HOULTON        FAIR      54  26  34 N5        30.05R
PRESQUE ISLE   FAIR      53  23  31 N5        30.07R
FRENCHVILLE    FAIR      52  21  29 NW8       30.05R
CARIBOU        FAIR      52  24  33 NW3       30.05R
$$

NHZ002-005-008-009-011-012-014-220200-
NEW HAMPSHIRE

CITY           SKY/WX    TMP DP  RH WIND       PRES   REMARKS
PORTSMOUTH     MOCLDY    69  42  37 W3        30.07R
ROCHESTER      FAIR      67  44  43 SW3       30.08R
NASHUA         FAIR      65  48  54 CALM      30.11R
MANCHESTER     FAIR      74  40  29 SW3       30.08R
CONCORD        FAIR      65  44  46 SW3       30.09R
LACONIA        FAIR      60  48  64 E3        30.11R
PLYMOUTH       FAIR      60  48  65 CALM      30.10R
BERLIN         FAIR      57  44  62 CALM      30.10R
WHITEFIELD     FAIR      56  47  71 CALM      30.12R
JAFFREY        FAIR      60  50  69 CALM      30.14R
KEENE          FAIR      60  49  66 CALM      30.13R
LEBANON        FAIR      59  47  64 S5        30.10R
MT WASHINGTON  PTCLDY    43  34  70 NW44        N/A
$$

VTZ005-007-008-220200-
VERMONT

CITY           SKY/WX    TMP DP  RH WIND       PRES   REMARKS
ST JOHNSBURY     N/A     62  44  51 MISG      30.10R
MONTPELIER     FAIR      57  45  64 S3        30.16R
BURLINGTON     FAIR      67  45  45 CALM      30.10R
$$

MAZ007-012-024-CTZ003-RIZ002-NYZ038-NYZ072-220200-
SOUTHERN NEW ENGLAND AND NY

CITY           SKY/WX    TMP DP  RH WIND       PRES   REMARKS
BOSTON         FAIR      68  49  50 SW10      30.10R
WORCESTER      FAIR      65  45  48 W9        30.14R
NANTUCKET      FAIR      50  50 100 S6        30.16R
PROVIDENCE     FAIR      61  48  62 SW6       30.14R
HARTFORD       FAIR      68  43  40 SW5       30.13R
ALBANY         MOCLDY    68  43  40 W5        30.13R
NEW YORK CITY  MOCLDY    66  48  52 S9        30.15S
$$

ANZ081-ANZ082-ANZ150-NHZ014-MEZ023>029-220200-
COASTAL MARINE OBSERVATIONS

STATION/POSITION TIME  TEMP    WIND        PRES    WAVE
                       AIR SEA DIR/SP/G            HT/PER
                 (UTC) (F)     (DEG/KT/KT) (MB)    (FT/S)
MOUNT DESERT ROC 0100   50     240/ 16/ 17 1018.2R
MATINICUS ROCK   0000   53     230/ 22/ 24 1017.0R
ISLE OF SHOALS   0000   66     210/ 17/ 19 1017.8R
JEFFREYS LEDGE   0036      52                N/A     3/ 8
CASHES LEDGE BUO 0050   53 51              1018.5R   3/ 8
$$

.............KEY..............
   WCI - WIND CHILL
   TC  - TEMPERATURE IN CELSIUS
   VSB - VISIBILITY IN MILES
   HX  - HEAT INDEX
   FAIR- INDICATES FEW OR NO CLOUDS BELOW 12,000 FT, WITH NO
         SIGNIFICANT WEATHER AND/OR OBSTRUCTIONS TO VISIBILITY.





USA.gov is the U.S. government's official web portal to all federal, state and local government web resources and services.